Location: Three Oaks Observatory
(31.1535°N, 83.5955°W)
Time: 11:03:04
(UTC-04:00)

Hubble Space Telescope - Pass Details

Date: 22 September 2018
Orbit: 537 x 541 km, 28.5° (Epoch: 16 October)

Event Time Altitude Azimuth Distance (km) Brightness Sun altitude
Rises 19:48:26 0° 262° (W) 2,670 6.6 -4.6°
Reaches altitude 10° 19:50:43 10° 259° (W) 1,779 5.0 -5.1°
Maximum altitude 19:54:46 60° 179° (S) 612 1.0 -5.9°
Drops below altitude 10° 19:58:49 10° 99° (E) 1,778 2.7 -6.8°
Enters shadow 19:59:08 - 99° (E) 1,900 2.9 -6.9°
